FW9340 Weather Reports


time (UTC)temp
C
wind
direction
speed
KPH
gust
KPH
rain 1hr
cm
rain 24hr
cm
rain mn
cm
humidity
%
barometer
mb
20260504214546 23 219 9.7 22.5 0.00 0.00 0.00 36 1009.7
20260504213040 23 251 4.8 17.7 0.00 0.00 0.00 37 1009.7
20260504211542 23 335 6.4 17.7 0.00 0.00 0.00 36 1009.7
20260504210042 23 237 9.7 19.3 0.00 0.00 0.00 34 1009.7
20260504204540 23 234 8.0 17.7 0.00 0.00 0.00 36 1009.8
20260504203040 23 156 6.4 19.3 0.00 0.00 0.00 36 1009.9
20260504201550 23 257 8.0 16.1 0.00 0.00 0.00 36 1010.2
20260504200046 23 148 4.8 25.7 0.00 0.00 0.00 35 1010.4
20260504194547 23 54 6.4 22.5 0.00 0.00 0.00 36 1010.4
20260504193040 22 333 6.4 19.3 0.00 0.00 0.00 37 1010.7
20260504191548 22 222 9.7 16.1 0.00 0.00 0.00 37 1011.2
20260504190039 22 210 1.6 25.7 0.00 0.00 0.00 37 1011.4
20260504184559 22 263 4.8 19.3 0.00 0.00 0.00 39 1011.7
20260504183042 22 291 6.4 16.1 0.00 0.00 0.00 41 1012.0
20260504181540 21 175 8.0 19.3 0.00 0.00 0.00 38 1012.0
20260504180042 22 242 1.6 11.3 0.00 0.00 0.00 39 1012.2
20260504174540 22 162 3.2 17.7 0.00 0.00 0.00 38 1012.2
20260504173040 21 150 4.8 20.9 0.00 0.00 0.00 38 1012.3
20260504171540 21 226 9.7 20.9 0.00 0.00 0.00 40 1012.7
20260504081542 7 0 0.0 0.0 0.00 0.00 0.00 73 1015.3
20260504044544 6 0 0.0 0.0 0.00 0.00 0.00 74 1015.6
20260504043043 5 0 0.0 0.0 0.00 0.00 0.00 73 1015.6
20260504041541 6 0 0.0 0.0 0.00 0.00 0.00 69 1015.6
20260504040048 7 0 0.0 0.0 0.00 0.00 0.00 68 1015.7
20260504034542 6 0 0.0 0.0 0.00 0.00 0.00 69 1015.6
20260504033052 5 0 0.0 0.0 0.00 0.00 0.00 70 1015.5
20260504031550 6 0 0.0 0.0 0.00 0.00 0.00 72 1015.3
20260504030043 6 0 0.0 0.0 0.00 0.00 0.00 71 1015.2
20260504024554 6 0 0.0 0.0 0.00 0.00 0.00 68 1015.2
20260504023044 6 0 0.0 0.0 0.00 0.00 0.00 68 1015.2
20260504021551 7 0 0.0 0.0 0.00 0.00 0.00 67 1015.1
20260504020047 7 0 0.0 0.0 0.00 0.00 0.00 65 1015.1
20260504014543 7 0 0.0 0.0 0.00 0.00 0.00 64 1015.0
20260504013047 8 0 0.0 0.0 0.00 0.00 0.00 61 1015.1
20260504011546 8 0 0.0 0.0 0.00 0.00 0.00 60 1014.9
20260504010046 9 0 0.0 0.0 0.00 0.00 0.00 56 1014.9
20260504004556 10 0 0.0 0.0 0.00 0.00 0.00 54 1014.6
20260504003042 11 0 0.0 0.0 0.00 0.00 0.00 51 1014.5
20260504001543 12 0 0.0 0.0 0.00 0.00 0.00 44 1014.3
20260504000050 13 0 0.0 6.4 0.00 0.00 0.00 38 1014.3
20260503234542 15 245 3.2 14.5 0.00 0.00 0.00 35 1014.1
20260503233041 15 272 3.2 9.7 0.00 0.00 0.00 34 1014.1
20260503231549 15 250 4.8 16.1 0.00 0.00 0.00 34 1013.9
20260503230051 15 288 3.2 9.7 0.00 0.00 0.00 34 1013.8
20260503224546 15 283 9.7 22.5 0.00 0.00 0.00 31 1013.9
20260503223043 15 316 12.9 24.1 0.00 0.00 0.00 31 1014.1
20260503221543 15 296 11.3 24.1 0.00 0.00 0.00 31 1014.1
20260503220048 15 278 11.3 19.3 0.00 0.00 0.00 31 1013.9